Wind_Speed
63 64 67 71 75 79 81 83 85 85 85 83 82 82 82 82 80 78 76 76 78 78 79 78 76 77 78 77 76 74 75 76 75 73 68 62 58 56 54 53 51 50 49 47 46 45 45 44 43 42 40 40 40 38 37 36 35 34 30 23 19 21 23 22 22 23 21 21 21 19 17 17 16 15 14 13 12 12 12 13 12 12 13 13 13 13 13 12
61 62 64 67 71 75 78 80 82 84 85 84 82 81 81 81 81 79 77 76 77 78 78 77 76 77 78 78 78 76 75 77 78 75 69 63 61 59 57 54 51 50 49 48 47 45 44 43 43 42 41 41 41 39 37 36 36 36 33 28 22 19 21 22 22 23 22 23 23 20 19 18 17 16 15 13 12 11 11 12 12 12 11 12 12 13 13 13
58 59 61 64 67 71 74 77 80 82 84 84 83 81 81 81 81 80 78 76 76 77 77 76 76 76 77 79 79 78 77 78 80 77 69 66 63 60 59 56 52 50 50 50 47 45 44 44 44 44 42 42 42 41 39 37 37 38 37 32 29 23 21 23 22 23 24 24 24 21 20 20 18 18 16 14 12 11 11 12 13 13 12 12 12 12 13 13
56 57 59 61 64 67 71 74 77 80 82 84 83 82 81 80 80 80 79 77 76 76 76 75 77 77 75 77 79 79 79 80 81 77 69 67 65 62 60 58 53 50 51 51 47 45 46 46 46 45 43 43 43 41 39 37 36 38 38 36 35 29 22 23 24 24 25 26 25 22 22 22 20 18 16 15 13 12 12 13 14 14 14 14 13 13 13 13
54 55 56 58 60 63 67 71 74 77 80 82 82 82 81 80 79 79 79 77 75 75 75 75 77 78 76 76 78 77 79 83 81 75 70 69 66 64 62 59 56 52 49 49 48 47 49 48 45 45 44 43 42 41 37 36 36 37 37 38 40 36 28 26 26 26 26 27 27 25 24 24 21 19 17 15 14 14 14 14 14 15 15 15 14 13 13 12
52 53 54 55 57 60 64 68 71 74 77 80 81 81 81 80 79 79 79 77 74 73 75 77 77 76 75 75 75 76 79 83 81 74 71 71 68 65 64 61 58 55 51 48 49 51 50 48 46 44 43 42 41 39 36 36 36 35 36 39 41 40 36 32 29 28 28 28 27 27 26 24 22 20 18 16 15 16 16 15 15 14 14 14 15 14 13 12
50 51 52 54 56 58 61 65 68 71 75 78 80 80 80 80 79 78 78 77 75 72 73 77 78 76 73 71 72 76 80 81 80 74 70 72 70 67 65 63 60 58 55 51 51 52 51 49 46 43 42 42 42 39 38 38 37 36 36 37 39 40 39 38 34 31 30 29 28 29 28 25 24 22 20 17 16 16 17 16 15 14 14 14 14 14 14 14
49 50 51 52 55 57 60 62 65 69 72 76 78 79 79 79 79 78 78 77 75 72 72 75 78 76 75 73 71 74 78 80 82 76 70 71 71 68 67 65 62 60 58 54 51 52 52 49 45 43 42 42 41 40 40 40 39 36 35 36 36 36 37 39 37 33 32 31 30 30 29 27 26 25 22 20 18 17 17 17 16 15 15 14 14 14 15 15
47 48 49 52 53 56 58 61 64 67 70 73 76 78 78 79 80 79 78 77 75 72 71 74 76 77 78 78 76 76 74 74 80 79 72 71 71 70 68 66 64 62 60 58 55 54 52 49 46 43 42 42 42 42 42 42 40 36 34 35 35 34 35 37 36 36 35 33 32 32 31 29 29 27 23 23 21 19 18 17 17 16 16 15 14 14 15 15
46 47 48 50 52 54 56 59 62 65 68 70 73 76 76 77 79 80 78 77 75 72 71 73 74 76 80 82 81 79 74 70 74 77 73 71 70 70 69 67 65 63 61 60 58 56 53 49 46 44 43 44 45 45 44 43 40 36 36 35 33 32 33 34 35 37 37 35 33 33 33 32 31 26 22 24 24 22 20 19 18 17 17 16 15 14 14 14
45 46 47 48 50 50 52 55 59 62 65 67 70 74 74 73 76 80 78 77 76 73 72 74 74 76 78 81 83 80 75 70 72 74 73 72 71 69 69 67 66 64 62 61 60 57 55 51 48 46 45 46 46 46 46 44 40 38 38 36 34 32 31 32 34 36 37 36 35 35 34 33 30 23 21 26 27 25 24 22 20 19 18 17 16 15 13 13
43 44 45 46 46 46 46 49 55 58 61 65 67 72 73 70 72 78 78 77 77 73 72 73 74 76 77 80 83 80 74 71 71 73 72 72 71 69 67 66 65 64 63 61 59 57 55 54 51 48 47 46 45 46 47 45 42 40 39 37 35 32 32 31 32 34 34 35 36 37 36 31 27 23 23 28 29 28 26 23 21 20 20 18 16 15 14 13
42 43 44 45 44 44 43 45 50 53 57 61 63 66 71 72 71 75 77 76 76 72 70 71 72 75 79 81 81 79 77 74 74 73 71 72 72 71 68 67 67 66 64 62 60 57 56 55 53 50 48 47 46 47 47 45 43 42 40 39 36 35 32 30 31 31 31 33 35 40 37 29 26 27 27 29 29 28 26 23 23 22 21 20 18 17 15 14
42 42 42 44 43 43 43 44 47 49 53 58 62 62 66 72 72 73 75 74 73 71 67 68 70 73 78 82 81 79 78 77 78 76 73 73 73 72 70 68 68 68 67 65 62 60 57 56 55 53 51 49 48 49 48 47 46 44 43 41 39 37 31 28 31 30 28 31 34 39 36 28 29 31 30 30 29 28 25 24 25 25 24 22 20 18 17 15
42 41 42 44 44 44 44 44 44 45 49 55 61 60 59 65 68 72 72 67 68 70 69 68 70 72 73 79 82 81 79 79 80 78 76 74 72 72 71 69 69 68 68 66 64 61 58 58 57 56 54 52 51 50 50 49 48 47 46 44 42 36 29 29 33 29 27 29 32 36 34 30 33 34 32 32 31 29 27 25 26 26 26 24 22 20 18 17
42 41 43 44 45 44 43 44 44 44 48 54 59 56 52 54 59 67 67 61 60 65 70 70 71 73 70 73 80 83 83 80 77 78 79 75 73 72 70 69 69 69 68 66 65 63 59 59 59 58 57 55 53 52 51 51 50 49 48 45 42 36 30 32 34 28 27 28 29 31 30 32 36 36 34 33 32 32 30 27 26 26 26 25 23 21 20 19
42 42 44 45 44 41 40 43 44 43 46 54 59 53 49 50 54 62 63 59 57 60 67 70 70 73 74 72 75 82 86 82 76 77 80 77 74 73 71 70 69 69 69 67 66 64 62 61 61 60 59 58 56 55 54 55 53 50 49 47 43 37 33 34 33 29 28 27 26 29 29 32 36 38 36 34 33 34 32 30 27 26 25 24 23 23 22 21
42 43 44 45 43 39 40 43 44 44 44 50 58 55 50 53 60 65 63 59 57 59 65 69 69 70 75 76 73 75 82 84 78 75 80 80 76 75 73 71 70 69 69 68 67 65 64 63 63 63 61 60 59 58 58 56 52 50 48 46 40 35 34 33 31 29 29 27 27 29 28 30 35 38 36 35 34 34 34 31 29 28 25 23 24 24 23 23
43 44 45 45 42 39 42 45 44 45 43 46 54 55 53 59 69 69 64 64 62 63 67 70 72 68 72 79 76 72 75 80 79 75 79 81 77 76 75 73 70 68 69 70 70 68 66 65 66 66 64 62 60 59 58 54 51 49 46 43 38 36 36 34 31 31 32 31 30 28 26 29 34 35 34 34 33 33 32 30 28 28 26 24 24 25 25 25
43 43 43 43 41 39 42 45 46 46 43 44 49 54 56 61 74 74 67 68 64 64 67 66 70 70 68 75 78 75 73 76 79 76 76 78 78 77 76 76 73 70 71 71 71 70 68 68 69 68 63 60 59 57 55 53 50 47 45 42 40 40 39 37 35 34 35 35 32 29 28 30 32 32 31 32 31 29 29 28 27 27 27 25 24 25 25 25
45 42 41 41 40 39 42 45 49 47 43 44 47 52 54 56 72 76 67 67 65 65 68 65 68 72 69 72 76 78 77 77 78 75 74 77 77 75 76 78 77 75 74 73 72 70 70 72 70 65 61 58 57 55 54 52 49 47 45 43 42 42 41 39 38 36 37 36 32 30 31 30 30 31 30 30 27 25 26 26 25 27 28 26 25 24 25 25
45 42 40 40 39 40 43 46 49 48 44 47 49 51 50 52 70 79 68 67 67 67 71 66 67 74 75 76 76 75 78 80 78 73 72 77 76 73 73 76 79 78 75 75 74 72 73 75 69 63 61 60 58 57 55 53 51 48 46 44 44 43 43 43 40 37 36 35 32 32 33 30 30 32 31 28 25 23 23 23 24 25 26 25 23 23 24 25
45 42 41 40 39 40 42 44 47 48 45 48 49 50 50 52 72 85 75 71 71 72 75 63 58 70 74 76 76 73 75 81 83 76 71 75 78 75 72 71 75 77 77 77 76 77 78 74 68 64 63 63 61 60 58 56 54 51 48 47 46 44 45 44 40 36 35 35 34 34 35 31 30 33 31 28 25 22 21 20 21 22 22 22 21 21 22 22
45 43 42 42 43 41 40 42 46 49 47 47 48 50 51 53 73 90 81 77 77 78 82 63 51 62 65 65 70 69 68 74 82 83 74 72 76 79 77 71 71 73 75 76 74 75 75 70 66 66 66 65 63 61 60 58 56 53 51 49 47 45 45 44 41 39 38 38 36 35 37 33 30 32 30 29 27 23 21 20 19 19 19 20 20 19 20 20
45 43 42 44 46 43 40 41 45 49 49 49 48 50 52 54 74 92 86 80 79 81 84 66 51 60 58 54 62 65 65 68 74 81 79 74 73 77 80 76 72 73 72 70 69 70 71 69 65 66 67 65 63 62 61 59 57 55 52 50 47 46 46 44 43 42 41 41 38 37 39 34 30 32 30 30 30 24 23 21 19 19 20 19 18 18 18 19
45 43 44 47 48 46 43 42 43 48 52 50 47 49 52 55 73 92 89 82 81 80 78 62 52 59 57 51 59 64 63 65 67 72 76 75 71 70 77 81 77 76 73 68 66 65 68 69 65 65 67 64 63 63 61 59 58 56 52 49 49 48 47 45 45 44 44 43 40 39 40 35 32 34 32 32 32 26 25 23 21 21 21 19 18 17 17 17
46 43 45 49 49 47 44 41 41 46 52 50 47 47 50 56 70 86 89 84 83 80 73 59 50 54 56 52 59 66 64 63 63 66 71 74 73 67 70 79 78 76 77 75 72 68 66 67 67 66 66 64 64 64 61 59 58 57 53 49 49 49 47 45 45 46 46 45 42 41 42 39 35 34 35 35 33 29 26 23 22 23 22 20 19 18 16 15
47 44 45 47 48 47 44 41 39 43 49 50 49 48 50 56 64 76 84 83 83 83 75 62 49 48 54 52 56 67 68 66 65 66 68 73 77 71 66 72 74 73 76 78 79 75 69 68 67 68 68 67 66 64 61 59 58 57 53 49 49 49 47 45 45 46 48 48 46 44 44 44 39 35 36 37 35 31 26 24 25 24 23 21 18 18 17 16
47 45 44 46 48 47 45 43 40 41 47 49 49 49 51 56 59 67 75 79 84 85 77 67 53 47 51 50 54 65 66 67 69 67 67 71 79 77 68 66 67 70 72 72 73 75 74 71 66 65 67 67 65 62 60 59 58 57 53 49 47 48 48 47 47 48 50 51 49 45 44 46 42 37 37 38 35 30 28 28 28 26 24 22 19 19 19 18
48 46 46 48 49 48 46 45 44 43 47 49 49 50 52 56 59 61 66 74 84 85 79 73 60 49 47 49 56 63 62 65 68 66 64 67 74 78 72 62 61 67 70 67 66 69 72 73 71 68 65 62 61 60 58 57 58 56 51 47 46 48 50 50 50 49 51 54 51 46 44 46 45 40 37 38 34 31 31 31 29 27 25 23 22 21 20 19
49 47 47 47 48 49 47 46 45 44 47 49 49 49 52 57 59 57 62 73 81 83 82 77 66 55 47 48 58 62 62 63 64 65 65 65 70 76 75 65 60 64 68 68 66 65 67 71 75 73 68 65 62 60 59 58 58 56 50 47 49 51 52 52 52 51 54 56 54 49 47 48 47 41 36 37 36 32 32 31 30 29 27 25 23 22 21 21
51 49 49 47 47 48 47 46 45 44 47 50 49 49 52 58 60 57 61 69 72 79 84 79 71 61 48 47 58 63 63 63 62 64 67 68 70 75 77 72 65 63 65 68 68 65 66 68 70 72 71 71 68 64 63 62 60 58 52 49 52 55 55 56 56 55 57 59 56 53 51 51 48 40 36 37 37 35 34 33 31 29 27 26 24 23 22 22
52 51 51 49 46 46 47 46 46 46 48 49 50 51 53 59 61 59 59 62 64 73 83 82 74 64 52 50 57 63 64 63 62 66 70 71 72 74 77 75 69 65 62 61 63 64 65 65 67 70 73 73 72 70 70 68 65 62 59 56 57 59 60 61 61 60 59 59 57 53 51 52 50 43 39 37 36 37 37 35 30 28 28 27 25 24 23 22
53 51 52 50 46 46 47 46 46 48 49 50 53 54 56 60 62 59 56 57 60 68 79 83 79 70 60 54 55 61 62 59 60 65 68 69 71 74 79 78 71 67 65 61 59 60 63 66 67 67 69 71 72 72 71 68 66 65 63 61 61 63 64 63 62 62 60 59 58 55 53 53 51 46 42 39 37 37 35 33 31 30 28 27 26 25 24 23
53 52 52 52 49 48 47 46 46 48 50 51 54 56 58 60 63 60 54 53 57 64 73 81 81 76 68 58 55 58 57 52 55 60 60 62 66 69 76 82 77 70 68 67 63 59 58 61 62 62 64 66 68 70 71 69 67 66 64 64 64 64 64 63 62 59 58 57 57 57 55 53 51 48 44 42 41 38 35 32 31 31 29 28 27 26 25 25
54 54 54 55 54 50 47 46 46 47 50 52 55 59 59 59 62 59 51 49 53 59 67 73 77 79 76 67 60 58 54 49 50 55 57 59 63 66 70 78 82 76 71 70 66 62 59 54 52 55 59 62 64 66 68 70 71 70 69 69 67 64 65 65 64 62 60 59 59 58 55 53 52 50 47 45 44 41 38 34 30 30 30 29 27 27 27 27
56 56 55 55 55 53 48 45 45 46 49 52 55 59 58 57 61 57 48 47 51 54 61 66 70 76 79 76 68 62 56 49 48 53 56 57 61 66 67 70 79 80 75 74 71 67 65 59 53 52 54 57 60 62 64 67 70 72 73 71 67 67 67 66 65 65 64 62 61 60 57 55 54 52 48 47 45 42 39 37 33 31 31 29 29 29 30 30
56 56 55 54 54 53 49 47 47 47 49 52 55 57 57 57 59 56 49 48 49 50 55 60 64 70 76 79 77 71 65 56 50 51 56 58 59 64 65 63 71 77 75 76 77 74 71 68 64 62 58 57 60 64 67 68 69 70 69 67 66 67 69 67 67 68 66 65 64 63 62 59 56 53 49 46 45 42 41 41 39 35 32 31 31 33 34 33
55 54 55 56 54 52 50 49 48 49 52 55 56 56 57 56 56 54 50 49 50 50 51 55 60 64 70 77 80 79 76 67 56 51 53 57 58 61 63 59 63 70 71 72 75 76 73 69 67 66 63 63 65 69 72 72 72 71 69 68 66 66 67 68 68 68 66 66 66 66 66 62 57 53 50 46 42 41 41 42 40 37 35 34 34 35 36 35
56 54 52 55 56 53 51 49 49 52 56 56 55 54 54 55 55 52 49 51 51 50 50 52 55 58 64 73 77 80 81 76 67 58 53 53 55 59 63 60 57 60 64 69 71 71 69 65 62 61 62 67 70 71 71 72 72 73 73 74 73 71 71 70 68 69 69 68 68 69 69 65 58 54 52 47 41 39 38 38 38 38 39 39 38 38 37 36
57 56 52 51 54 55 52 50 51 54 57 56 54 54 53 53 53 49 47 50 52 50 50 50 52 55 59 67 70 71 77 80 76 69 59 53 53 56 59 60 58 57 57 62 67 67 65 62 60 60 62 65 67 65 64 66 68 70 71 74 76 75 74 72 71 72 72 71 70 71 71 67 61 56 53 48 43 39 38 38 38 40 42 42 41 40 38 36
55 57 54 51 52 54 54 51 52 53 53 53 53 54 54 53 52 48 44 45 48 49 49 49 51 52 56 63 64 60 65 73 78 78 69 57 52 52 53 53 55 55 53 53 57 60 60 59 59 59 59 58 58 59 60 61 65 67 67 67 68 68 69 68 69 69 69 69 68 69 71 67 61 58 55 50 46 43 41 40 40 41 42 42 41 40 38 37
52 55 56 53 52 54 55 53 53 52 51 51 50 52 53 53 52 51 46 43 44 45 47 49 49 49 52 59 60 56 56 61 70 77 75 66 56 51 49 47 47 48 48 48 50 53 55 57 56 55 54 53 52 53 54 58 63 66 67 65 63 62 61 61 61 61 61 65 65 68 71 68 63 61 57 54 52 48 44 43 43 44 43 42 40 38 37 36
47 50 54 55 54 54 56 55 54 53 54 53 51 50 52 52 52 52 50 46 43 43 44 47 48 48 50 52 53 55 55 56 62 72 76 75 68 61 56 50 45 43 43 44 46 49 53 57 58 55 54 54 53 53 55 60 63 64 65 66 65 63 60 59 59 59 62 66 67 69 73 71 67 66 62 59 56 51 48 48 47 45 43 40 37 36 35 34
47 48 50 53 54 55 56 56 52 50 52 52 52 51 50 51 51 52 51 49 47 45 44 45 46 47 48 48 47 50 53 54 56 63 71 75 75 72 67 61 53 45 41 41 44 47 49 55 59 59 57 58 59 60 59 57 57 58 58 60 61 62 62 61 61 62 66 68 69 72 74 72 70 69 65 62 57 51 48 47 46 42 39 36 34 34 34 33
49 51 51 52 54 55 56 55 53 50 49 50 51 52 51 51 51 51 51 50 49 48 47 47 48 48 48 47 45 45 49 52 52 56 63 70 74 75 75 72 63 51 44 42 44 45 46 54 60 59 56 56 57 58 57 54 54 55 54 53 54 57 60 62 62 64 66 68 70 73 73 73 72 69 65 60 55 49 45 41 40 38 36 35 34 35 36 36
48 49 50 51 54 56 55 54 53 52 51 50 51 52 51 51 51 52 53 51 50 49 49 50 50 50 50 48 46 44 46 49 52 53 57 62 68 69 71 75 72 63 57 52 48 45 45 54 62 61 57 55 54 55 55 57 58 56 54 53 52 53 55 58 59 59 60 64 67 67 67 70 71 66 61 55 49 44 40 37 38 37 37 39 39 39 40 40
49 48 47 47 50 52 53 53 53 52 52 52 53 52 51 51 50 52 52 52 51 50 49 50 49 49 49 48 46 45 44 47 50 53 54 56 60 62 63 69 74 73 71 67 62 55 48 49 54 55 53 52 53 54 54 56 57 57 57 57 55 55 55 54 52 49 50 54 55 52 51 58 61 55 49 45 42 40 39 39 42 44 45 46 45 44 44 43
50 50 49 47 47 48 49 50 50 50 50 51 53 53 53 53 52 52 51 51 52 51 50 49 48 48 47 47 46 45 44 44 46 50 50 50 53 55 55 62 69 72 73 73 71 65 55 48 46 46 47 48 50 52 54 55 56 56 58 59 59 60 60 58 56 52 51 51 50 47 46 51 54 48 40 40 42 43 44 45 46 48 49 50 49 47 46 44
48 49 49 48 48 47 48 48 48 48 48 49 51 51 52 53 53 53 52 51 51 51 50 48 46 46 47 47 47 45 43 41 41 45 46 46 49 51 51 55 61 65 68 71 72 69 63 57 52 49 50 51 52 54 55 56 57 57 60 61 60 61 61 61 62 59 57 56 53 52 52 53 53 48 44 45 46 47 49 49 47 47 48 49 49 47 46 45
47 46 45 46 46 47 48 49 49 49 49 50 51 51 51 51 51 52 52 51 50 50 51 49 47 47 48 49 47 44 41 38 38 42 45 44 47 48 48 51 55 58 61 65 68 67 66 66 60 54 51 50 51 54 56 55 57 61 63 64 62 62 62 62 63 61 60 60 57 57 58 55 50 48 47 47 47 46 46 46 46 45 45 47 48 47 46 47
49 48 46 45 44 45 45 47 49 51 51 51 51 52 52 51 50 50 51 51 50 49 49 48 49 51 52 52 48 42 39 38 39 44 50 49 49 48 45 46 51 54 58 64 66 65 66 68 65 61 56 48 46 50 50 49 54 62 63 62 62 64 65 66 67 67 66 66 65 64 61 55 51 49 47 46 46 44 42 43 45 45 46 48 49 49 48 49
Wind_Direction
247 244 241 238 237 235 232 230 228 227 227 226 226 226 226 226 227 227 227 226 226 224 223 224 225 226 227 228 227 225 226 227 225 224 223 223 225 225 224 224 222 221 220 219 218 220 222 222 221 220 217 217 220 220 220 221 219 221 224 216 218 233 238 233 224 221 221 225 228 224 223 220 216 213 214 214 213 214 213 212 209 209 216 219 214 205 200 195
247 244 241 238 236 235 233 231 228 227 226 226 225 225 225 226 226 227 227 226 226 224 223 223 225 225 225 227 228 227 226 226 226 223 222 223 224 224 224 224 222 221 220 219 218 218 221 222 221 220 218 218 220 220 219 220 220 223 223 214 216 224 229 230 223 220 220 224 227 224 223 222 217 215 212 212 211 214 215 216 214 211 218 225 222 216 208 198
247 243 241 238 235 234 233 231 229 227 226 226 225 225 225 225 225 226 227 226 226 224 223 222 224 225 225 226 227 228 226 226 226 222 221 223 223 223 224 224 222 221 220 220 218 218 221 221 221 219 217 217 219 220 219 219 219 222 222 218 221 225 224 226 224 220 218 222 225 222 223 223 219 216 212 209 209 210 214 217 217 212 213 222 223 221 217 207
245 242 240 237 235 233 232 231 229 227 226 225 225 225 225 225 224 225 226 226 226 225 222 222 224 224 225 226 226 228 228 227 225 222 222 223 223 223 224 224 221 220 220 220 218 219 223 222 220 220 217 216 218 219 218 218 219 220 222 222 221 223 224 224 226 225 220 220 221 219 223 223 220 218 212 208 205 205 212 216 218 214 211 216 219 219 220 214
243 241 239 236 235 232 230 229 228 227 226 225 225 225 224 224 224 224 225 225 226 225 222 221 223 224 225 227 226 226 228 227 223 222 224 223 223 223 224 224 222 220 220 220 218 217 222 223 220 219 218 216 217 218 217 218 219 220 222 224 222 220 221 219 223 228 225 222 221 218 222 225 223 220 215 209 203 204 211 216 219 218 215 215 217 217 219 218
241 240 238 236 234 232 230 228 227 226 225 225 224 225 224 224 224 224 224 224 225 225 223 220 221 223 223 227 228 226 228 227 222 222 225 224 223 223 224 224 222 220 218 217 218 218 220 222 219 219 218 217 218 217 217 217 218 218 220 224 225 222 220 218 218 223 226 226 224 219 220 225 225 222 219 212 206 208 211 215 220 222 219 218 218 217 216 216
240 239 237 236 233 231 229 227 226 225 225 224 223 224 224 224 224 224 224 223 223 224 223 221 220 221 221 224 227 227 229 228 224 224 226 225 224 223 223 224 222 221 219 215 217 219 220 220 218 218 218 217 218 217 217 218 216 216 218 222 226 225 224 222 218 219 225 226 226 222 219 221 224 223 221 217 211 211 214 216 220 223 221 219 218 218 215 213
239 238 237 236 233 230 227 225 224 223 223 223 222 223 223 223 223 223 223 222 222 221 222 221 220 219 220 221 224 225 227 228 225 224 225 227 226 224 223 224 222 221 220 216 216 220 221 220 218 217 218 218 219 218 217 219 217 214 217 220 224 224 225 227 223 220 223 225 226 225 221 219 221 221 220 219 216 215 217 218 219 221 223 222 219 217 215 213
239 238 237 235 232 228 226 223 222 221 221 221 221 222 222 223 222 222 222 221 221 220 220 221 220 219 219 221 223 224 223 226 226 224 225 227 226 225 224 224 223 222 221 217 216 219 220 220 219 217 218 219 220 220 218 220 218 214 216 219 222 223 223 227 227 225 224 225 226 227 226 222 221 220 219 220 218 217 219 220 220 221 222 223 222 219 216 214
239 239 237 234 230 226 223 221 220 220 219 219 220 220 221 222 221 221 221 220 220 218 218 221 220 220 220 220 222 223 222 223 226 225 225 226 227 226 225 224 224 223 222 221 219 220 220 221 221 219 218 218 220 221 220 220 218 215 217 219 219 221 223 225 228 229 227 226 227 230 229 225 222 219 220 225 221 217 218 220 221 222 224 223 222 222 219 216
240 239 236 231 226 223 221 220 217 217 217 217 218 218 218 220 220 220 220 219 219 217 216 219 220 220 221 221 221 221 220 222 225 224 223 224 226 227 226 226 225 224 223 222 222 221 222 223 222 221 219 218 219 221 222 222 220 217 218 219 218 219 220 223 226 229 230 228 227 231 231 228 224 218 222 229 224 217 217 218 220 222 226 226 222 223 221 219
239 237 232 226 222 217 216 218 215 214 215 214 216 216 216 218 218 218 218 218 218 216 215 218 219 220 221 223 222 219 219 222 224 225 222 221 224 226 226 226 226 225 224 223 224 223 223 225 224 223 222 219 220 222 223 223 222 220 220 220 218 217 218 220 225 228 230 230 228 231 232 229 225 219 223 230 227 221 217 216 219 222 226 228 224 222 223 222
235 232 228 221 215 210 210 214 213 210 211 211 213 214 214 216 217 215 215 217 217 214 214 217 218 220 222 223 223 220 219 221 224 225 223 221 222 224 224 225 225 224 224 223 224 224 224 225 225 225 224 222 222 223 224 224 224 223 223 223 219 217 216 218 224 226 228 230 229 232 230 226 225 223 224 230 231 226 220 216 218 221 225 227 225 222 222 223
230 227 223 214 207 205 205 211 215 211 208 208 209 209 212 216 216 213 213 215 215 212 211 214 217 221 224 224 223 222 220 221 224 225 224 223 221 223 224 224 225 224 223 222 223 223 222 223 225 224 224 223 222 223 224 224 224 223 224 223 219 216 212 217 226 226 226 228 230 233 228 220 226 227 225 230 234 230 224 218 218 219 223 226 226 224 223 223
225 222 216 208 202 202 203 207 213 213 209 206 204 204 208 215 215 211 210 212 214 211 207 210 214 219 224 225 223 221 220 221 223 224 224 224 222 223 225 225 225 225 224 223 222 222 221 222 223 223 223 222 222 223 223 222 222 223 223 222 220 215 209 216 226 225 225 228 229 233 226 217 226 230 227 230 234 235 229 223 220 219 221 224 227 228 226 225
221 218 210 206 203 203 204 204 208 211 210 205 201 200 202 208 211 207 205 207 211 210 206 207 211 215 221 225 223 220 220 221 222 222 223 223 222 222 225 225 225 225 225 224 223 223 221 222 223 223 222 221 222 222 223 222 221 222 222 222 221 216 210 218 226 224 225 229 229 233 225 217 226 231 229 230 233 237 235 229 225 222 222 222 224 228 230 228
217 213 206 206 206 205 205 204 205 207 209 205 199 197 196 198 200 198 199 203 205 205 205 207 210 214 219 222 223 221 219 220 222 222 222 223 221 220 222 224 225 225 225 224 224 223 222 222 222 222 222 221 221 221 222 221 220 221 222 222 221 217 214 219 225 224 226 229 229 231 224 218 227 232 231 231 232 237 238 235 230 227 224 221 221 224 228 230
214 209 205 206 207 206 204 204 206 203 201 201 198 197 196 195 192 189 192 197 199 199 202 206 209 214 220 220 220 222 221 220 222 222 222 222 221 220 220 223 224 224 224 224 223 223 223 223 223 223 222 221 220 220 221 221 220 221 223 224 224 220 218 220 225 227 226 228 227 228 223 219 227 231 232 232 233 237 239 238 234 229 226 223 222 222 225 228
212 208 206 208 209 206 203 203 203 196 192 196 198 198 198 196 190 184 186 191 195 196 198 206 209 210 219 221 220 221 221 221 222 223 221 220 220 219 219 221 223 223 223 224 223 223 223 223 223 222 220 219 219 220 222 222 222 223 225 226 225 223 220 219 223 226 226 225 225 226 222 220 227 231 232 233 233 236 240 240 237 232 228 225 225 224 224 226
209 208 207 209 209 206 203 200 193 189 192 198 201 202 201 199 192 184 184 188 192 195 197 206 211 209 214 220 221 220 219 220 221 222 221 220 220 219 219 219 221 221 222 223 223 223 223 224 223 220 218 219 221 223 225 225 224 224 226 225 224 224 221 218 220 222 224 224 223 223 222 221 227 231 231 233 233 236 241 242 238 233 229 225 225 226 225 225
208 208 207 208 206 203 201 195 189 189 195 199 206 209 205 202 194 186 185 188 190 194 199 205 210 211 213 218 221 220 219 219 221 223 221 219 219 220 221 221 221 223 222 222 222 222 224 224 222 219 220 223 225 227 228 228 226 226 227 226 225 225 223 222 222 222 224 225 223 224 224 221 228 233 231 232 234 236 240 240 235 230 227 226 227 230 230 228
207 206 206 205 201 198 197 194 194 196 197 200 207 212 210 207 196 187 186 188 190 193 198 201 200 204 212 217 220 220 220 220 220 221 220 219 217 217 220 222 223 225 225 224 221 220 223 222 220 220 222 224 226 228 229 229 229 228 228 227 226 225 224 224 224 224 227 229 226 227 227 221 226 235 234 233 235 237 237 234 229 225 224 226 229 232 232 231
205 203 204 200 193 193 196 198 200 201 203 202 205 210 212 210 197 190 188 188 189 193 198 200 194 195 205 214 219 219 219 220 221 220 219 218 217 215 217 221 223 225 227 228 226 224 224 221 219 221 223 224 225 226 227 228 228 228 228 227 226 226 226 226 226 228 231 232 228 229 230 222 224 234 237 237 235 234 233 226 223 221 219 223 225 226 226 228
204 202 202 196 190 192 195 199 202 204 207 206 206 208 211 210 198 192 191 189 189 193 198 203 197 194 200 207 212 214 214 217 220 221 220 219 217 215 216 218 221 224 227 229 229 229 227 224 222 223 223 224 225 226 227 228 227 227 228 228 227 228 229 229 230 231 232 233 230 230 232 225 226 234 238 240 236 230 229 223 218 218 217 220 221 220 221 222
202 201 200 196 194 196 196 198 202 204 207 209 209 208 208 208 198 194 195 192 190 192 197 202 200 198 202 203 205 207 208 212 215 218 220 221 220 218 218 218 219 222 225 228 229 229 228 226 225 225 225 225 226 226 227 228 228 229 229 229 229 229 230 230 231 231 233 234 232 233 234 226 226 234 234 239 237 227 227 223 216 218 217 217 218 217 220 222
201 199 199 196 196 199 201 201 202 204 207 210 212 210 209 208 201 199 200 198 194 191 194 199 198 199 201 200 202 202 203 207 210 213 215 218 220 220 220 220 220 222 224 227 230 228 226 225 225 226 227 227 227 227 227 228 230 230 229 230 231 230 231 232 233 233 234 235 233 234 235 227 225 233 231 235 238 228 224 222 216 219 218 216 217 217 220 224
200 198 199 198 197 201 205 204 205 206 207 210 213 212 209 208 207 206 205 205 200 192 192 195 193 195 193 190 199 203 204 207 208 210 212 213 215 217 218 220 221 222 223 225 228 227 225 224 224 225 227 227 228 228 228 229 230 230 229 229 230 231 232 233 235 236 236 236 235 232 234 231 224 229 231 231 235 232 226 223 220 220 221 219 221 223 224 226
198 199 199 198 198 202 206 206 206 206 206 209 212 213 210 209 212 211 210 213 206 195 194 193 187 190 188 184 195 203 207 210 209 210 212 211 212 213 216 219 221 223 225 227 229 230 229 227 226 226 227 227 227 228 229 231 231 231 231 229 228 228 230 232 233 236 238 240 237 231 232 234 224 224 232 230 230 231 227 225 224 223 224 223 224 228 229 230
198 198 199 197 199 203 205 205 204 204 205 207 210 212 211 211 216 216 216 217 209 201 196 193 188 188 187 183 192 200 205 208 207 208 211 212 212 213 215 218 221 223 226 229 231 232 233 232 229 229 230 229 228 228 229 232 232 232 233 229 227 228 229 231 229 231 237 239 238 233 233 235 227 218 228 232 227 227 225 225 227 227 229 229 227 230 231 232
197 197 197 198 199 203 204 203 202 202 204 206 208 211 211 214 218 220 219 217 214 209 200 195 192 188 184 182 188 196 199 202 204 204 207 211 213 213 213 216 220 221 224 226 227 230 232 232 230 228 229 230 230 230 230 231 232 232 232 227 224 226 228 232 231 231 236 237 235 235 234 237 230 216 221 232 228 224 225 227 228 228 230 230 228 229 230 232
197 197 198 198 201 205 207 205 204 204 205 205 207 209 212 216 220 222 221 217 217 215 206 200 196 192 187 182 185 192 196 200 201 200 203 209 212 211 209 213 217 217 220 222 223 225 226 228 228 227 227 227 227 228 228 230 230 229 228 223 222 225 227 231 232 231 235 235 233 234 234 237 231 213 211 228 229 226 227 228 228 228 228 228 227 228 229 232
197 198 199 199 200 205 207 208 208 207 208 207 206 208 211 217 221 222 220 217 218 219 213 206 199 195 191 184 186 191 194 198 201 199 201 206 211 211 208 211 214 213 214 216 217 221 224 225 227 226 226 226 226 225 224 225 227 226 223 220 220 223 224 228 230 230 234 235 233 233 235 234 229 215 210 221 229 229 229 230 231 231 231 231 231 231 232 234
198 199 199 200 202 204 203 204 207 207 209 209 208 209 211 217 222 223 220 218 218 220 218 211 203 199 196 189 186 189 193 196 197 199 202 205 210 211 210 211 214 214 216 216 215 215 218 222 223 221 221 223 223 224 223 223 224 225 223 220 220 222 223 224 227 229 231 235 234 235 236 233 229 225 217 217 226 231 231 234 235 236 237 237 236 236 236 238
199 201 201 201 203 204 202 201 203 204 207 209 210 213 214 216 222 223 222 220 219 221 221 216 210 206 202 194 186 186 190 192 191 194 199 202 206 209 210 211 212 216 219 220 219 215 213 217 219 219 221 222 223 224 226 226 227 228 227 224 224 225 225 226 229 231 233 237 239 239 238 232 229 231 225 217 222 231 232 234 237 239 241 242 243 242 241 242
199 202 202 200 201 204 204 202 203 203 205 208 211 214 215 215 219 224 223 221 221 222 223 221 218 213 206 197 189 185 185 186 188 191 194 197 200 205 210 212 212 215 218 220 221 220 218 219 221 221 222 223 224 225 225 225 225 226 227 226 226 227 228 229 230 233 236 239 241 241 238 232 231 235 234 224 222 228 231 232 235 240 243 245 247 248 248 247
198 201 201 201 202 205 206 204 205 205 205 208 211 214 214 213 219 225 224 223 223 222 223 224 223 220 214 206 197 188 184 184 185 190 194 196 197 200 205 210 213 215 218 220 221 221 221 221 222 222 222 222 222 223 224 224 224 224 225 225 227 228 228 229 230 232 234 235 237 239 237 234 233 235 236 230 223 225 231 233 236 240 243 245 247 249 250 249
199 201 202 203 204 206 208 207 208 209 208 210 213 214 214 214 219 224 222 221 222 222 223 225 225 225 221 215 206 198 195 192 187 188 194 197 198 199 200 205 210 213 217 220 222 222 222 224 225 225 225 224 221 220 222 223 224 224 224 225 226 226 227 227 229 231 232 234 236 237 236 236 235 233 235 234 227 224 229 233 236 239 242 246 247 248 249 249
200 203 203 205 205 206 208 209 210 211 212 213 213 213 214 215 219 223 222 219 220 221 223 224 225 227 225 220 215 211 208 204 196 188 192 198 199 199 199 200 204 209 213 218 222 223 224 227 230 230 230 228 223 218 216 217 220 222 225 226 226 226 227 227 229 231 232 234 236 237 236 236 233 231 235 238 233 230 231 232 236 241 245 247 247 248 248 248
201 202 203 205 205 205 207 208 209 211 213 215 214 212 213 215 218 223 222 220 220 220 221 223 224 226 226 223 221 221 218 213 206 193 190 196 198 198 201 200 201 205 209 212 217 222 224 225 227 228 229 228 223 218 215 215 217 218 220 222 223 226 228 229 231 233 234 235 236 237 237 234 231 232 239 241 238 238 238 237 239 243 247 249 250 251 250 249
201 202 203 204 204 205 206 205 207 211 213 215 214 213 214 215 219 222 222 220 221 220 220 222 223 224 226 224 225 227 225 220 215 205 195 194 194 197 200 201 201 203 207 211 213 215 217 218 219 220 223 223 222 221 220 219 219 219 220 221 222 224 226 226 229 231 233 234 235 237 237 233 230 233 238 240 242 245 246 245 245 246 248 251 255 255 254 252
202 203 203 203 204 207 207 207 208 211 213 214 214 214 214 216 219 221 221 220 221 220 220 221 222 223 224 224 226 229 229 227 222 216 207 197 192 194 199 202 204 202 205 212 214 212 212 214 216 218 221 222 223 225 226 225 223 224 225 226 225 226 226 226 227 228 231 232 234 236 237 233 231 233 235 241 247 251 252 251 250 250 251 253 256 257 257 256
202 204 205 205 207 209 209 210 212 212 213 214 215 215 216 216 218 219 217 217 219 220 220 220 222 224 224 224 226 229 231 230 228 224 218 206 195 192 195 199 202 201 201 208 214 215 213 214 217 219 221 223 223 223 224 223 222 222 224 225 226 227 228 229 230 231 233 235 236 239 239 236 233 234 235 240 248 251 253 254 254 254 254 256 258 258 259 259
202 205 207 207 209 211 212 212 213 214 215 215 215 216 217 217 219 219 216 214 215 216 217 219 221 223 224 225 226 227 229 231 231 228 223 215 205 198 197 196 196 200 201 201 208 215 216 216 216 217 219 219 220 219 219 220 220 220 220 221 223 225 227 230 233 234 236 237 238 241 241 236 234 236 235 238 245 250 253 255 256 257 258 259 260 260 260 261
202 205 207 208 208 211 213 213 213 214 216 216 217 217 217 218 219 220 218 215 213 213 214 216 219 221 223 225 226 226 228 230 231 231 228 223 216 210 208 205 203 205 203 198 204 212 217 218 216 215 214 214 215 215 214 216 217 219 220 221 222 224 225 227 230 231 233 234 235 238 238 234 233 235 234 236 243 250 253 254 257 260 261 262 262 261 261 261
207 206 206 208 209 211 213 213 213 214 215 217 219 219 219 219 220 221 221 218 215 213 212 213 216 218 220 222 223 224 225 228 230 230 230 228 224 221 219 216 213 211 207 204 204 207 216 222 220 218 216 216 217 217 216 217 219 221 223 223 224 226 227 228 230 232 234 234 235 237 237 236 236 236 236 238 243 250 254 255 258 260 260 261 261 261 260 259
212 212 209 208 209 211 213 213 213 214 214 216 219 221 222 222 222 223 223 221 219 216 215 215 217 219 220 221 222 222 222 224 227 229 230 230 229 228 227 224 220 215 213 212 206 206 217 223 222 223 224 224 224 225 225 227 227 227 228 229 229 229 230 230 231 234 235 235 238 239 238 239 239 239 242 244 247 251 254 256 258 259 259 259 258 256 256 256
212 215 215 214 213 213 213 214 215 216 215 216 218 221 223 224 224 225 225 223 221 218 217 218 220 221 223 224 224 223 222 222 224 227 230 231 231 231 230 229 226 222 223 222 215 216 223 221 219 222 225 227 229 230 231 232 232 232 232 234 234 231 229 229 231 233 235 236 238 239 240 242 242 244 248 251 252 253 253 254 254 254 255 256 254 253 253 254
210 212 216 219 221 221 219 218 218 218 217 218 219 219 221 223 224 226 227 226 225 222 220 219 220 222 224 224 224 224 224 222 222 224 227 230 233 233 232 232 230 227 229 230 227 228 229 221 217 220 223 227 230 232 234 235 236 237 235 235 235 233 232 233 234 235 237 240 241 239 242 245 244 245 250 252 253 252 249 248 249 251 253 254 253 253 253 253
212 212 213 215 219 222 223 222 221 219 218 219 221 221 222 223 224 226 228 229 227 226 224 222 222 223 225 226 225 225 225 225 223 224 225 228 233 236 234 233 232 232 233 234 231 231 230 224 221 223 226 229 231 233 234 235 235 236 235 234 233 234 235 236 237 236 237 242 240 235 239 242 239 240 246 246 247 248 246 246 248 250 252 252 252 253 254 253
215 216 216 217 217 218 219 220 222 222 221 221 221 221 223 224 226 227 229 230 230 228 227 225 223 225 226 228 228 227 227 228 225 223 224 224 227 232 235 234 233 233 234 235 233 233 233 230 227 228 229 226 226 230 232 233 234 234 234 233 231 231 232 233 235 234 235 239 239 237 240 239 235 239 245 244 244 247 248 250 250 249 249 250 251 252 252 252
213 214 217 219 221 222 221 221 223 224 224 223 223 222 223 224 225 228 230 232 233 231 229 226 224 225 228 229 229 229 228 229 226 222 221 220 220 224 229 232 233 233 233 232 233 233 235 234 230 231 231 223 219 225 229 232 236 237 235 234 233 232 233 235 238 238 239 243 244 244 246 242 239 245 251 250 249 249 249 251 250 249 249 250 252 252 251 252
212 214 215 218 221 224 225 225 226 226 227 228 227 227 227 227 227 228 229 231 233 232 231 227 223 223 227 228 228 228 227 226 223 220 218 216 214 214 216 220 225 230 231 231 232 232 234 235 233 233 234 225 218 222 225 229 236 238 238 239 240 241 242 243 244 244 245 248 249 249 250 249 248 251 252 251 249 247 245 245 246 247 250 251 253 254 254 253
Height
5637 5640 5642 5646 5650 5654 5661 5666 5672 5679 5685 5691 5697 5703 5708 5714 5720 5725 5731 5737 5742 5749 5754 5759 5764 5769 5774 5779 5783 5787 5789 5791 5795 5798 5806 5816 5820 5823 5826 5828 5831 5834 5837 5840 5842 5845 5847 5850 5853 5856 5859 5860 5861 5863 5865 5867 5868 5869 5870 5871 5872 5872 5872 5875 5877 5878 5878 5878 5879 5880 5881 5881 5882 5882 5883 5884 5885 5886 5886 5887 5888 5889 5890 5890 5892 5892 5893 5893
5630 5632 5635 5638 5642 5646 5652 5658 5664 5670 5676 5683 5689 5695 5701 5707 5713 5718 5724 5730 5736 5742 5748 5754 5758 5763 5769 5773 5777 5781 5784 5786 5789 5794 5804 5812 5814 5818 5821 5824 5828 5831 5834 5836 5839 5842 5845 5848 5850 5852 5856 5857 5858 5859 5861 5864 5866 5867 5868 5870 5870 5871 5871 5873 5875 5876 5876 5876 5877 5879 5879 5879 5880 5881 5882 5883 5884 5885 5886 5886 5887 5888 5889 5890 5891 5892 5892 5893
5622 5624 5627 5630 5634 5638 5643 5649 5656 5662 5668 5675 5681 5688 5694 5700 5706 5712 5717 5723 5730 5735 5743 5749 5753 5757 5763 5767 5772 5775 5779 5781 5782 5791 5802 5806 5810 5815 5816 5820 5825 5827 5830 5833 5836 5840 5842 5844 5845 5848 5851 5853 5854 5856 5858 5860 5863 5864 5866 5868 5868 5869 5870 5871 5872 5873 5874 5874 5876 5877 5877 5878 5879 5880 5881 5882 5883 5884 5885 5885 5885 5887 5888 5889 5890 5891 5892 5893
5615 5617 5620 5623 5627 5631 5635 5641 5647 5654 5660 5667 5674 5680 5686 5692 5699 5705 5711 5717 5724 5729 5737 5744 5747 5752 5758 5762 5766 5770 5774 5774 5776 5790 5800 5801 5807 5811 5812 5817 5821 5824 5826 5829 5833 5837 5838 5838 5841 5845 5848 5849 5851 5853 5855 5858 5860 5861 5864 5866 5865 5866 5868 5869 5871 5871 5872 5872 5874 5875 5876 5876 5877 5878 5880 5881 5882 5883 5883 5883 5884 5885 5887 5887 5888 5890 5891 5892
5608 5610 5613 5616 5620 5624 5628 5633 5639 5646 5653 5660 5667 5673 5679 5685 5692 5698 5704 5711 5718 5724 5733 5740 5742 5746 5754 5758 5761 5766 5767 5765 5775 5790 5795 5797 5803 5806 5809 5813 5817 5821 5823 5826 5830 5833 5834 5835 5839 5842 5845 5847 5849 5851 5854 5855 5857 5859 5862 5862 5863 5865 5866 5867 5869 5870 5870 5870 5872 5873 5874 5875 5876 5877 5879 5880 5881 5881 5881 5882 5882 5884 5885 5886 5887 5889 5890 5891
5601 5604 5607 5610 5613 5616 5621 5626 5632 5639 5645 5652 5659 5666 5672 5678 5685 5692 5698 5705 5713 5720 5726 5732 5736 5741 5751 5755 5758 5760 5758 5762 5776 5788 5791 5793 5798 5802 5805 5809 5813 5817 5819 5823 5826 5828 5830 5831 5836 5840 5843 5846 5847 5850 5852 5852 5853 5856 5858 5859 5860 5863 5864 5865 5866 5868 5868 5869 5870 5872 5872 5873 5875 5876 5878 5879 5880 5880 5880 5881 5881 5882 5884 5885 5886 5887 5889 5890
5595 5598 5600 5603 5606 5610 5614 5619 5625 5632 5638 5644 5651 5659 5665 5672 5679 5685 5692 5699 5707 5715 5719 5725 5731 5737 5747 5751 5751 5752 5753 5763 5775 5784 5788 5789 5793 5798 5801 5804 5808 5812 5815 5819 5822 5825 5826 5828 5833 5838 5842 5843 5845 5848 5849 5848 5850 5852 5854 5856 5857 5860 5862 5863 5864 5865 5867 5868 5868 5869 5871 5872 5873 5875 5876 5878 5879 5879 5879 5879 5880 5881 5882 5883 5885 5886 5887 5888
5589 5591 5594 5597 5600 5603 5607 5612 5618 5624 5630 5637 5645 5651 5658 5665 5672 5679 5686 5693 5701 5708 5712 5718 5725 5732 5740 5742 5743 5742 5747 5759 5768 5778 5784 5784 5788 5793 5796 5800 5804 5808 5811 5815 5820 5822 5823 5826 5831 5835 5839 5841 5843 5845 5845 5845 5846 5849 5852 5853 5855 5857 5860 5861 5862 5863 5865 5866 5866 5867 5869 5870 5871 5872 5875 5876 5877 5878 5878 5878 5879 5880 5881 5882 5883 5884 5886 5887
5583 5585 5588 5590 5593 5597 5600 5606 5611 5616 5623 5631 5639 5645 5652 5659 5666 5672 5678 5686 5695 5701 5707 5712 5718 5726 5731 5734 5735 5735 5745 5758 5763 5772 5779 5780 5784 5788 5791 5797 5800 5804 5808 5811 5815 5818 5820 5824 5828 5832 5836 5839 5841 5841 5842 5841 5844 5848 5849 5850 5852 5854 5856 5858 5859 5861 5862 5864 5865 5866 5866 5867 5868 5870 5873 5874 5875 5876 5877 5877 5877 5878 5879 5881 5882 5883 5884 5885
5577 5579 5582 5584 5587 5590 5594 5600 5604 5610 5617 5625 5633 5639 5646 5653 5660 5665 5672 5681 5689 5696 5703 5706 5713 5719 5722 5726 5726 5731 5747 5754 5755 5766 5774 5776 5779 5782 5787 5792 5796 5800 5804 5808 5811 5814 5818 5822 5826 5829 5831 5834 5836 5838 5838 5839 5842 5845 5846 5847 5849 5851 5853 5855 5857 5858 5860 5862 5863 5864 5864 5865 5866 5869 5872 5872 5873 5874 5875 5875 5876 5877 5878 5879 5880 5881 5882 5883
5571 5573 5576 5578 5581 5585 5589 5594 5598 5604 5612 5619 5626 5632 5639 5646 5652 5659 5668 5675 5682 5691 5698 5701 5708 5713 5717 5720 5720 5730 5745 5747 5750 5759 5765 5770 5775 5779 5784 5788 5792 5796 5799 5803 5807 5812 5816 5819 5822 5824 5826 5829 5832 5834 5835 5837 5840 5842 5842 5844 5846 5848 5850 5852 5854 5855 5857 5860 5861 5862 5862 5863 5866 5870 5871 5868 5869 5871 5872 5873 5874 5875 5876 5877 5879 5880 5881 5882
5565 5568 5570 5573 5576 5580 5586 5590 5593 5599 5605 5612 5619 5627 5633 5639 5645 5654 5661 5668 5675 5685 5692 5696 5702 5708 5713 5713 5715 5730 5742 5743 5747 5750 5757 5765 5770 5774 5779 5783 5788 5792 5796 5800 5804 5809 5812 5815 5818 5821 5823 5826 5829 5830 5832 5835 5838 5839 5840 5841 5843 5845 5847 5850 5851 5852 5854 5857 5859 5859 5859 5863 5866 5868 5867 5864 5866 5868 5869 5872 5873 5874 5874 5875 5877 5878 5879 5880
5560 5563 5565 5568 5571 5576 5582 5587 5590 5594 5599 5607 5614 5621 5628 5632 5639 5647 5654 5661 5670 5679 5687 5693 5699 5705 5706 5706 5714 5728 5736 5740 5740 5742 5751 5758 5763 5767 5772 5776 5781 5785 5790 5795 5799 5804 5807 5811 5814 5817 5819 5822 5825 5826 5828 5832 5835 5837 5838 5838 5841 5842 5844 5848 5848 5850 5852 5854 5855 5854 5857 5863 5865 5864 5863 5862 5864 5866 5868 5870 5871 5872 5873 5874 5875 5876 5877 5878
5555 5558 5560 5563 5567 5571 5577 5583 5588 5591 5595 5602 5608 5615 5622 5627 5634 5641 5649 5656 5664 5673 5682 5689 5697 5699 5698 5702 5713 5721 5729 5734 5732 5736 5746 5751 5758 5762 5765 5771 5775 5779 5785 5789 5793 5797 5802 5805 5808 5812 5814 5817 5820 5821 5824 5827 5830 5833 5834 5835 5836 5839 5843 5846 5845 5847 5850 5851 5851 5851 5855 5862 5861 5860 5861 5860 5861 5863 5866 5868 5869 5870 5871 5872 5873 5874 5876 5877
5550 5553 5556 5560 5564 5567 5572 5578 5584 5588 5592 5598 5604 5611 5617 5624 5629 5636 5645 5653 5658 5667 5676 5683 5689 5691 5691 5695 5705 5713 5722 5724 5725 5734 5740 5746 5755 5758 5762 5768 5771 5776 5780 5784 5788 5792 5796 5799 5802 5805 5808 5811 5814 5816 5819 5822 5825 5828 5829 5830 5832 5837 5843 5843 5841 5845 5847 5847 5848 5848 5854 5859 5857 5856 5858 5858 5859 5861 5863 5865 5866 5868 5869 5870 5871 5872 5874 5875
5546 5549 5553 5557 5560 5564 5568 5573 5578 5584 5589 5594 5601 5608 5614 5620 5625 5630 5640 5646 5652 5660 5669 5674 5679 5684 5684 5687 5697 5705 5710 5715 5723 5731 5733 5740 5749 5754 5759 5763 5766 5771 5775 5780 5784 5787 5791 5794 5796 5799 5802 5806 5808 5811 5814 5817 5820 5823 5825 5827 5830 5836 5840 5839 5838 5843 5844 5844 5845 5847 5851 5855 5853 5853 5855 5856 5857 5858 5860 5862 5864 5865 5867 5868 5870 5870 5871 5872
5542 5545 5550 5553 5557 5561 5566 5570 5574 5579 5584 5589 5597 5604 5610 5616 5620 5626 5633 5639 5647 5655 5662 5667 5674 5679 5677 5680 5689 5695 5702 5711 5718 5723 5727 5734 5742 5748 5752 5755 5761 5766 5769 5774 5777 5781 5785 5788 5790 5793 5797 5800 5803 5807 5808 5811 5815 5819 5822 5824 5828 5834 5836 5835 5837 5840 5841 5842 5844 5845 5848 5851 5850 5850 5852 5854 5854 5855 5857 5860 5861 5863 5865 5866 5868 5868 5869 5870
5539 5542 5546 5549 5553 5558 5562 5568 5571 5575 5580 5586 5593 5598 5605 5610 5614 5620 5627 5634 5642 5649 5655 5660 5667 5671 5669 5672 5682 5690 5700 5707 5711 5718 5722 5727 5734 5741 5746 5750 5755 5760 5764 5767 5770 5775 5778 5781 5785 5787 5791 5794 5798 5801 5802 5807 5813 5817 5820 5823 5829 5833 5833 5834 5836 5838 5839 5840 5841 5841 5845 5848 5846 5847 5849 5851 5852 5853 5855 5857 5859 5861 5862 5864 5865 5866 5867 5867
5535 5539 5543 5546 5550 5554 5558 5563 5567 5573 5578 5583 5588 5593 5598 5602 5606 5613 5620 5626 5633 5640 5648 5652 5657 5661 5661 5669 5681 5689 5696 5702 5707 5712 5715 5721 5728 5734 5739 5743 5748 5753 5756 5758 5764 5768 5772 5776 5777 5779 5785 5790 5795 5799 5802 5807 5812 5816 5819 5823 5827 5830 5831 5832 5833 5834 5835 5836 5837 5839 5843 5844 5842 5844 5847 5848 5850 5851 5852 5854 5857 5859 5860 5862 5862 5863 5864 5865
5532 5536 5540 5543 5547 5551 5555 5560 5565 5571 5575 5580 5585 5587 5590 5594 5600 5606 5613 5621 5630 5639 5647 5650 5653 5657 5661 5669 5676 5682 5689 5694 5699 5704 5710 5717 5722 5727 5732 5735 5740 5743 5746 5753 5760 5763 5767 5768 5769 5777 5786 5792 5796 5799 5801 5805 5809 5813 5816 5820 5823 5825 5827 5828 5828 5829 5830 5831 5834 5838 5840 5841 5841 5843 5845 5845 5847 5850 5851 5852 5854 5856 5858 5859 5860 5861 5862 5863
5528 5532 5537 5541 5545 5549 5553 5558 5563 5567 5572 5578 5581 5583 5587 5594 5601 5608 5615 5622 5629 5638 5645 5649 5651 5655 5662 5664 5668 5676 5683 5687 5692 5700 5706 5711 5717 5722 5726 5730 5732 5734 5741 5749 5753 5757 5760 5760 5768 5780 5788 5791 5794 5797 5799 5802 5806 5810 5813 5817 5819 5821 5824 5826 5825 5826 5826 5828 5832 5835 5836 5839 5840 5840 5842 5843 5846 5848 5848 5849 5851 5853 5854 5856 5857 5858 5859 5861
5525 5530 5534 5538 5543 5547 5551 5556 5560 5565 5570 5574 5577 5581 5587 5593 5600 5608 5614 5618 5625 5634 5641 5644 5645 5650 5656 5657 5662 5671 5675 5679 5687 5693 5699 5703 5711 5718 5722 5724 5727 5733 5741 5741 5744 5748 5750 5756 5772 5781 5783 5785 5788 5791 5794 5797 5801 5805 5809 5812 5815 5818 5820 5821 5822 5824 5824 5826 5830 5831 5832 5837 5838 5837 5839 5842 5844 5846 5845 5846 5848 5849 5851 5853 5855 5856 5857 5858
5521 5526 5531 5536 5541 5545 5549 5553 5557 5562 5566 5570 5575 5579 5583 5587 5592 5598 5604 5610 5618 5627 5634 5638 5640 5644 5648 5652 5657 5662 5666 5673 5680 5686 5692 5696 5705 5714 5717 5719 5725 5732 5732 5732 5740 5744 5748 5761 5774 5776 5776 5778 5781 5784 5788 5791 5795 5800 5804 5807 5810 5814 5816 5818 5821 5822 5822 5824 5826 5828 5828 5833 5836 5835 5838 5840 5842 5843 5843 5844 5845 5847 5849 5851 5852 5853 5854 5856
5519 5524 5528 5534 5539 5542 5547 5550 5553 5557 5562 5567 5572 5574 5577 5581 5586 5591 5597 5604 5610 5618 5628 5633 5635 5638 5642 5646 5650 5655 5662 5668 5674 5682 5688 5692 5700 5707 5712 5717 5723 5724 5723 5732 5742 5746 5755 5768 5771 5769 5770 5771 5774 5779 5783 5786 5790 5795 5799 5803 5807 5811 5812 5815 5818 5818 5819 5819 5823 5825 5824 5829 5834 5834 5836 5838 5838 5840 5841 5842 5843 5845 5847 5848 5849 5851 5852 5853
5516 5522 5526 5531 5535 5539 5543 5546 5550 5554 5558 5562 5565 5569 5572 5576 5583 5587 5591 5597 5603 5612 5621 5626 5630 5634 5639 5642 5643 5648 5657 5662 5668 5677 5684 5691 5697 5702 5708 5715 5716 5716 5722 5733 5738 5744 5754 5760 5763 5765 5764 5766 5771 5775 5779 5783 5787 5791 5795 5800 5804 5807 5808 5810 5812 5814 5815 5815 5820 5822 5820 5826 5831 5832 5834 5835 5835 5838 5839 5840 5842 5843 5844 5846 5847 5849 5850 5851
5514 5519 5523 5528 5532 5536 5538 5541 5546 5550 5554 5558 5561 5566 5570 5574 5579 5582 5585 5592 5597 5604 5614 5621 5627 5630 5635 5639 5638 5643 5650 5655 5664 5673 5681 5689 5695 5699 5704 5707 5709 5714 5724 5731 5732 5738 5745 5749 5756 5758 5759 5765 5768 5770 5776 5780 5783 5786 5792 5797 5800 5802 5804 5805 5808 5810 5810 5812 5816 5819 5817 5822 5828 5830 5832 5832 5832 5836 5837 5838 5840 5841 5842 5844 5845 5847 5848 5849
5511 5516 5519 5524 5529 5532 5535 5540 5543 5546 5552 5556 5559 5563 5567 5571 5574 5576 5582 5586 5589 5598 5608 5617 5623 5626 5632 5637 5635 5639 5645 5652 5664 5669 5675 5684 5689 5693 5695 5698 5705 5713 5720 5722 5721 5727 5736 5742 5748 5750 5754 5760 5762 5767 5774 5777 5779 5783 5789 5793 5795 5798 5800 5801 5804 5805 5806 5808 5812 5814 5815 5817 5823 5827 5828 5830 5831 5833 5835 5837 5838 5839 5840 5842 5843 5844 5846 5847
5508 5513 5517 5522 5526 5529 5533 5537 5541 5545 5549 5553 5557 5560 5564 5567 5569 5573 5578 5581 5584 5592 5601 5611 5619 5622 5628 5632 5632 5635 5641 5651 5661 5663 5670 5679 5683 5687 5690 5694 5704 5711 5715 5714 5716 5728 5736 5738 5744 5748 5750 5753 5759 5767 5772 5773 5777 5781 5785 5788 5790 5794 5795 5797 5800 5801 5802 5803 5805 5810 5812 5812 5818 5824 5826 5827 5829 5831 5833 5835 5835 5836 5837 5839 5841 5842 5843 5845
5505 5510 5515 5519 5521 5525 5528 5533 5538 5543 5546 5550 5554 5557 5560 5564 5567 5570 5574 5577 5581 5587 5597 5606 5612 5616 5622 5626 5629 5633 5639 5648 5653 5658 5668 5674 5677 5682 5687 5694 5703 5708 5710 5714 5722 5729 5730 5736 5745 5746 5745 5752 5760 5765 5766 5770 5773 5777 5782 5785 5787 5789 5790 5792 5794 5796 5797 5797 5800 5806 5808 5807 5813 5821 5823 5823 5827 5830 5831 5831 5832 5833 5835 5837 5839 5839 5840 5842
5502 5507 5511 5514 5517 5520 5524 5529 5533 5537 5541 5546 5550 5554 5558 5560 5562 5564 5568 5573 5578 5583 5592 5601 5607 5614 5618 5622 5627 5632 5638 5643 5648 5657 5664 5667 5672 5679 5686 5695 5700 5701 5703 5709 5716 5719 5723 5732 5735 5734 5741 5751 5756 5759 5763 5766 5768 5772 5777 5780 5782 5783 5785 5787 5788 5792 5792 5791 5796 5802 5804 5804 5806 5815 5820 5821 5825 5828 5827 5828 5830 5831 5832 5834 5835 5836 5837 5839
5499 5504 5508 5512 5515 5518 5522 5527 5531 5534 5537 5541 5547 5552 5554 5555 5557 5559 5564 5572 5577 5580 5587 5596 5604 5611 5614 5619 5625 5631 5636 5640 5645 5653 5657 5661 5668 5673 5680 5687 5689 5692 5697 5700 5705 5710 5715 5719 5720 5727 5738 5743 5745 5752 5757 5759 5761 5765 5770 5775 5777 5777 5780 5782 5783 5786 5786 5787 5793 5797 5800 5800 5800 5810 5820 5819 5821 5824 5824 5826 5827 5828 5830 5831 5832 5833 5834 5835
5496 5500 5505 5509 5512 5515 5520 5525 5529 5533 5535 5539 5545 5547 5549 5550 5550 5554 5563 5572 5576 5578 5584 5592 5600 5608 5613 5617 5623 5627 5633 5638 5644 5648 5651 5657 5662 5666 5672 5677 5679 5684 5686 5689 5696 5702 5706 5709 5715 5724 5730 5732 5736 5743 5746 5749 5752 5757 5762 5767 5769 5771 5774 5775 5776 5778 5780 5782 5787 5792 5794 5794 5796 5807 5817 5818 5818 5820 5821 5822 5824 5825 5827 5828 5829 5830 5831 5832
5493 5497 5501 5505 5509 5513 5517 5521 5525 5529 5533 5538 5541 5542 5545 5546 5546 5554 5564 5570 5574 5577 5582 5589 5598 5605 5609 5612 5617 5622 5628 5634 5640 5645 5648 5653 5658 5663 5669 5674 5678 5681 5682 5687 5693 5695 5699 5704 5708 5712 5716 5722 5727 5731 5735 5740 5746 5750 5756 5760 5762 5764 5765 5766 5769 5771 5775 5778 5782 5787 5790 5790 5793 5801 5812 5816 5815 5815 5817 5819 5821 5823 5824 5825 5826 5827 5828 5829
5490 5494 5498 5502 5506 5509 5513 5518 5522 5525 5529 5533 5536 5538 5541 5543 5547 5554 5561 5566 5572 5577 5581 5587 5594 5598 5602 5607 5613 5617 5623 5629 5634 5640 5644 5648 5652 5657 5662 5668 5673 5676 5681 5685 5687 5691 5695 5694 5697 5703 5710 5716 5721 5727 5734 5743 5748 5749 5753 5755 5756 5758 5760 5763 5766 5769 5773 5776 5778 5782 5785 5786 5790 5796 5805 5813 5812 5812 5815 5817 5819 5820 5821 5822 5823 5824 5825 5826
5487 5490 5494 5498 5502 5505 5510 5515 5519 5523 5525 5528 5531 5532 5536 5544 5549 5552 5558 5565 5571 5576 5579 5584 5589 5593 5598 5604 5608 5612 5618 5623 5628 5633 5638 5643 5646 5651 5656 5661 5666 5670 5674 5677 5681 5688 5691 5691 5697 5705 5709 5714 5720 5725 5731 5737 5739 5743 5747 5748 5748 5754 5759 5761 5764 5767 5770 5772 5772 5775 5779 5783 5788 5792 5798 5806 5809 5810 5812 5814 5815 5816 5818 5819 5820 5821 5821 5822
5482 5486 5490 5494 5498 5503 5507 5512 5517 5520 5522 5524 5526 5529 5537 5546 5549 5550 5558 5565 5569 5573 5576 5580 5584 5589 5593 5598 5602 5607 5611 5614 5619 5625 5630 5636 5641 5646 5651 5656 5661 5666 5670 5674 5679 5683 5687 5692 5698 5702 5705 5709 5714 5718 5724 5727 5730 5735 5737 5738 5744 5752 5753 5754 5758 5760 5762 5763 5765 5769 5774 5780 5784 5786 5791 5798 5804 5808 5808 5810 5812 5813 5814 5816 5817 5817 5817 5818
5476 5481 5486 5490 5495 5500 5505 5510 5514 5517 5520 5522 5523 5530 5539 5544 5545 5548 5556 5560 5564 5568 5571 5574 5579 5584 5588 5593 5598 5603 5606 5609 5613 5618 5624 5629 5634 5640 5645 5650 5656 5662 5668 5673 5676 5680 5686 5691 5694 5697 5701 5706 5709 5714 5719 5721 5724 5726 5727 5734 5743 5744 5742 5747 5751 5753 5755 5758 5761 5766 5770 5774 5778 5781 5786 5792 5798 5804 5805 5806 5807 5809 5811 5813 5814 5814 5813 5814
5473 5478 5484 5488 5493 5498 5503 5508 5512 5515 5517 5518 5521 5530 5536 5539 5542 5546 5551 5555 5559 5563 5566 5570 5575 5579 5584 5590 5594 5598 5601 5604 5608 5614 5619 5623 5627 5634 5640 5645 5651 5658 5664 5667 5670 5676 5682 5686 5688 5692 5696 5700 5703 5705 5706 5709 5714 5719 5726 5734 5736 5734 5736 5743 5744 5746 5751 5754 5757 5762 5764 5768 5773 5779 5783 5788 5793 5798 5799 5801 5803 5805 5806 5808 5809 5809 5809 5809
5470 5475 5480 5485 5490 5496 5500 5505 5509 5511 5512 5514 5519 5526 5530 5536 5540 5542 5546 5551 5555 5559 5562 5566 5571 5576 5580 5585 5589 5591 5594 5600 5604 5610 5615 5619 5625 5631 5636 5642 5648 5654 5659 5662 5665 5671 5676 5679 5682 5686 5690 5694 5695 5693 5693 5698 5705 5713 5720 5724 5725 5728 5734 5738 5740 5744 5748 5750 5753 5756 5757 5763 5771 5776 5780 5784 5788 5790 5792 5795 5798 5800 5801 5802 5804 5804 5804 5805
5467 5472 5477 5482 5488 5492 5496 5501 5504 5504 5507 5511 5517 5524 5529 5534 5536 5537 5542 5547 5551 5555 5559 5563 5568 5573 5577 5582 5584 5585 5590 5595 5600 5605 5610 5615 5622 5627 5631 5637 5643 5650 5656 5658 5661 5666 5669 5672 5676 5680 5683 5683 5684 5686 5690 5696 5702 5706 5710 5714 5716 5719 5725 5730 5735 5738 5740 5744 5747 5749 5751 5759 5768 5773 5776 5779 5783 5784 5787 5790 5793 5795 5796 5796 5797 5798 5799 5801
5462 5468 5473 5479 5484 5487 5492 5496 5498 5499 5504 5509 5515 5521 5526 5529 5532 5534 5538 5542 5547 5552 5557 5562 5566 5569 5573 5577 5580 5582 5586 5591 5596 5600 5605 5610 5616 5622 5629 5635 5641 5646 5650 5653 5656 5660 5663 5666 5670 5672 5674 5677 5683 5689 5693 5698 5701 5705 5708 5711 5713 5715 5719 5723 5724 5728 5733 5737 5741 5743 5745 5753 5763 5768 5772 5776 5778 5780 5783 5785 5787 5789 5790 5790 5791 5792 5794 5795
5459 5465 5471 5476 5480 5484 5488 5492 5494 5498 5503 5508 5513 5518 5522 5526 5529 5531 5534 5538 5544 5549 5554 5559 5563 5566 5570 5574 5577 5580 5583 5587 5592 5596 5602 5609 5615 5622 5628 5631 5636 5640 5642 5647 5653 5657 5660 5662 5664 5667 5671 5678 5683 5686 5688 5691 5695 5699 5701 5706 5711 5712 5715 5718 5722 5730 5734 5736 5741 5743 5741 5749 5759 5764 5769 5773 5774 5776 5777 5779 5781 5782 5783 5784 5785 5787 5789 5791
5456 5462 5467 5473 5477 5480 5483 5487 5492 5496 5501 5506 5510 5514 5518 5522 5525 5528 5532 5537 5541 5546 5551 5556 5560 5564 5567 5571 5574 5577 5580 5584 5588 5593 5600 5607 5612 5618 5621 5624 5628 5630 5632 5639 5647 5652 5654 5656 5659 5664 5669 5673 5676 5678 5682 5684 5686 5687 5691 5697 5702 5706 5713 5718 5723 5730 5731 5732 5738 5738 5736 5746 5755 5759 5765 5768 5769 5771 5772 5773 5774 5775 5776 5778 5780 5783 5785 5786
5454 5459 5463 5467 5471 5475 5479 5485 5490 5494 5498 5503 5507 5511 5515 5519 5522 5526 5531 5535 5539 5544 5547 5552 5556 5560 5563 5566 5569 5573 5577 5580 5584 5590 5596 5601 5605 5610 5613 5617 5620 5621 5626 5633 5638 5644 5649 5651 5654 5658 5661 5663 5666 5669 5671 5673 5676 5681 5686 5692 5697 5704 5710 5712 5716 5721 5720 5725 5731 5728 5731 5742 5748 5751 5758 5762 5764 5767 5768 5768 5768 5768 5770 5772 5775 5778 5779 5781
5451 5455 5459 5464 5467 5471 5476 5483 5488 5492 5497 5502 5506 5510 5513 5517 5521 5524 5529 5533 5537 5541 5545 5548 5551 5555 5558 5561 5564 5568 5572 5577 5582 5586 5591 5596 5601 5605 5608 5612 5615 5619 5624 5628 5632 5637 5643 5646 5649 5652 5653 5654 5657 5660 5664 5670 5676 5680 5684 5690 5695 5700 5703 5706 5712 5712 5713 5722 5725 5722 5730 5740 5741 5745 5752 5757 5761 5763 5763 5763 5763 5763 5765 5767 5770 5772 5774 5776
5449 5451 5455 5459 5464 5468 5474 5480 5485 5489 5495 5501 5504 5508 5512 5516 5520 5523 5527 5531 5535 5539 5543 5545 5547 5551 5554 5557 5561 5565 5569 5574 5578 5582 5587 5591 5595 5600 5604 5607 5612 5618 5621 5624 5628 5631 5634 5640 5645 5648 5651 5655 5658 5663 5669 5673 5674 5677 5682 5688 5692 5695 5698 5702 5704 5704 5711 5720 5716 5718 5730 5734 5734 5742 5748 5752 5757 5758 5758 5760 5759 5759 5760 5762 5764 5765 5766 5768
5446 5450 5453 5457 5461 5465 5470 5476 5481 5487 5492 5496 5500 5504 5509 5513 5517 5519 5522 5527 5532 5537 5540 5541 5544 5548 5551 5555 5559 5563 5567 5571 5575 5580 5585 5588 5590 5595 5599 5602 5608 5615 5618 5620 5623 5625 5628 5633 5638 5642 5647 5652 5655 5659 5662 5664 5666 5672 5679 5684 5687 5689 5691 5692 5694 5701 5711 5710 5705 5717 5729 5726 5730 5740 5742 5745 5750 5752 5754 5755 5755 5754 5754 5754 5756 5757 5758 5761
5443 5448 5453 5457 5461 5465 5471 5476 5480 5485 5490 5492 5495 5500 5504 5508 5512 5515 5519 5524 5529 5533 5536 5539 5542 5546 5549 5553 5557 5561 5565 5568 5572 5578 5582 5585 5588 5591 5595 5599 5604 5609 5611 5613 5617 5620 5623 5628 5633 5637 5641 5646 5649 5651 5653 5657 5662 5668 5673 5677 5681 5682 5684 5686 5693 5702 5705 5700 5705 5721 5725 5720 5727 5735 5735 5739 5744 5745 5748 5749 5749 5749 5747 5747 5748 5750 5752 5755
5442 5446 5450 5454 5459 5466 5471 5476 5479 5483 5486 5489 5493 5497 5501 5506 5510 5514 5517 5520 5524 5529 5533 5538 5543 5546 5548 5551 5554 5559 5563 5567 5573 5577 5581 5585 5586 5588 5592 5597 5601 5604 5606 5608 5613 5617 5620 5625 5629 5632 5635 5640 5643 5645 5648 5651 5655 5659 5664 5669 5672 5674 5678 5682 5688 5696 5696 5694 5703 5714 5713 5712 5721 5727 5731 5735 5735 5736 5740 5741 5742 5743 5742 5741 5743 5745 5747 5749
5440 5445 5449 5454 5458 5462 5466 5471 5475 5479 5483 5486 5490 5496 5500 5505 5509 5513 5515 5516 5520 5526 5530 5537 5544 5546 5547 5549 5552 5557 5563 5569 5574 5577 5579 5582 5584 5585 5588 5592 5596 5599 5601 5605 5609 5612 5616 5620 5623 5625 5628 5631 5636 5640 5643 5645 5648 5651 5655 5660 5664 5667 5671 5674 5679 5687 5687 5687 5697 5705 5703 5707 5719 5725 5726 5727 5727 5730 5732 5734 5737 5738 5737 5737 5738 5740 5742 5744
5439 5444 5449 5452 5456 5459 5463 5468 5472 5475 5478 5481 5487 5493 5497 5502 5508 5511 5513 5515 5519 5523 5528 5536 5542 5544 5544 5545 5549 5557 5565 5570 5573 5575 5576 5577 5579 5581 5584 5587 5590 5592 5595 5599 5603 5607 5611 5613 5617 5620 5620 5623 5630 5634 5635 5639 5642 5642 5645 5651 5656 5659 5664 5669 5675 5682 5682 5684 5694 5697 5696 5706 5720 5722 5720 5721 5723 5724 5726 5729 5732 5732 5731 5731 5732 5734 5737 5738
5436 5441 5445 5448 5452 5456 5460 5465 5467 5470 5475 5480 5486 5490 5494 5499 5503 5505 5507 5511 5514 5519 5524 5531 5536 5536 5536 5539 5548 5558 5564 5566 5568 5568 5567 5568 5571 5574 5577 5581 5584 5587 5590 5594 5596 5601 5604 5606 5611 5613 5614 5619 5625 5627 5630 5634 5631 5629 5635 5646 5652 5656 5662 5667 5671 5676 5678 5680 5685 5688 5695 5708 5715 5713 5714 5717 5716 5717 5721 5724 5724 5724 5725 5725 5726 5729 5731 5731